This demonstration page uses our WeatherBlox Daily Observations layout. Learn more.

40.92945, -100.16068

Hourly Observations for February 21, 2019

Temp ( °F °C ) Dew Point ( °F °C ) Humidity (%) Winds ( mph kmh ) Pressure ( in mb ) Visibility ( mi km ) Precip ( " mm )
12:15 am 00:15 Clear -2 -19 -7 -21.5 81 81 Calm 30.2 1023 7 11.26538 0 0
12:35 am 00:35 Clear -4 -19.9 -9 -22.5 80 80 Calm 30.21 1023 10 16.0934 0 0
12:55 am 00:55 Clear -3 -19.6 -8 -22.1 81 81 Calm 30.22 1023 10 16.0934 0 0
1:15 am 01:15 Clear -2 -19.1 -7 -21.5 81 81 Calm 30.22 1023 10 16.0934 0 0
1:35 am 01:35 Clear -4 -20.1 -9 -23 78 78 Calm 30.23 1024 10 16.0934 0 0
1:55 am 01:55 Clear -4 -20.1 -9 -22.8 79 79 Calm 30.23 1024 10 16.0934 0 0
2:15 am 02:15 Clear -5 -20.4 -9 -23 80 80 Calm 30.24 1024 10 16.0934 0 0
2:35 am 02:35 Clear -4 -19.9 -9 -22.6 79 79 Calm 30.23 1024 10 16.0934 0 0
2:55 am 02:55 Clear -3 -19.4 -8 -22 80 80 Calm 30.23 1024 10 16.0934 0 0
3:15 am 03:15 Clear -3 -19.5 -8 -22.1 80 80 WNW 6 9 30.25 1024 10 16.0934 0 0
3:35 am 03:35 Clear -1 -18.4 -5 -20.8 82 82 WNW 5 7 30.24 1024 10 16.0934 0 0
3:55 am 03:55 Clear -2 -18.7 -6 -21.3 80 80 WNW 3 6 30.25 1024 10 16.0934 0 0
4:15 am 04:15 Clear -1 -18.2 -5 -20.7 81 81 Calm 30.24 1024 10 16.0934 0 0
4:35 am 04:35 Clear -2 -18.8 -7 -21.5 79 79 W 3 6 30.26 1025 10 16.0934 0 0
4:55 am 04:55 Clear -3 -19.5 -8 -22.1 80 80 NW 3 6 30.28 1025 10 16.0934 0 0
5:15 am 05:15 Clear -2 -18.9 -7 -21.6 79 79 NW 3 6 30.27 1025 10 16.0934 0 0
5:35 am 05:35 Clear -3 -19.2 -7 -21.9 79 79 WNW 3 6 30.28 1025 10 16.0934 0 0
5:55 am 05:55 Partly Cloudy -2 -18.9 -7 -21.5 80 80 Calm 30.29 1026 10 16.0934 0 0
6:15 am 06:15 Clear -3 -19.6 -8 -22.3 79 79 Calm 30.3 1026 10 16.0934 0 0
6:35 am 06:35 Clear -4 -19.9 -9 -22.8 78 78 Calm 30.3 1026 10 16.0934 0 0
6:55 am 06:55 Partly Cloudy -4 -19.9 -9 -22.7 79 79 NW 3 6 30.3 1026 10 16.0934 0 0
7:15 am 07:15 Mostly Cloudy -2 -18.9 -7 -21.5 80 80 Calm 30.3 1026 10 16.0934 0 0
7:35 am 07:35 Mostly Cloudy 0 -17.6 -4 -20.1 81 81 WNW 3 6 30.29 1026 10 16.0934 0 0
7:55 am 07:55 Mostly Cloudy 2 -16.6 -2 -19 82 82 WNW 5 7 30.28 1026 10 16.0934 0 0
8:15 am 08:15 Cloudy 4 -15.8 -1 -18.1 83 83 WNW 3 6 30.28 1026 10 16.0934 0 0
8:35 am 08:35 Cloudy 5 -14.8 2 -16.9 84 84 W 5 7 30.29 1026 10 16.0934 0 0
8:55 am 08:55 Cloudy 8 -13.6 4 -15.7 84 84 WNW 3 6 30.28 1025 10 16.0934 0 0
9:15 am 09:15 Cloudy 9 -12.9 5 -14.8 86 86 Calm 30.28 1025 10 16.0934 0 0
9:35 am 09:35 Cloudy 10 -12.2 7 -14.1 86 86 Calm 30.26 1025 10 16.0934 0 0
9:55 am 09:55 Cloudy 12 -11.2 8 -13.1 86 86 Calm 30.26 1025 10 16.0934 0 0
10:15 am 10:15 Cloudy 14 -10.1 11 -11.9 87 87 Calm 30.25 1024 10 16.0934 0 0
10:35 am 10:35 Cloudy 15 -9.3 12 -11.1 87 87 Calm 30.23 1024 10 16.0934 0 0
10:55 am 10:55 Cloudy 18 -8 13 -10.4 83 83 Calm 30.22 1023 10 16.0934 0 0
11:15 am 11:15 Cloudy 20 -6.8 15 -9.6 81 81 NE 5 7 30.2 1023 10 16.0934 0 0
11:35 am 11:35 Cloudy 24 -4.4 17 -8.1 76 76 ENE 7 11 30.17 1022 10 16.0934 0 0
11:55 am 11:55 Cloudy 25 -4 17 -8.1 73 73 ENE 8 13 30.17 1022 10 16.0934 0 0
12:15 pm 12:15 Cloudy 26 -3.4 19 -7.4 74 74 ENE 8 13 30.15 1021 10 16.0934 0 0
12:35 pm 12:35 Cloudy 26 -3.5 18 -7.6 74 74 ENE 12 19 30.14 1021 10 16.0934 0 0
12:55 pm 12:55 Cloudy 26 -3.5 19 -7.4 75 75 ENE 9 15 30.14 1021 10 16.0934 0 0
1:15 pm 13:15 Cloudy 26 -3.2 19 -7 75 75 ENE 10 17 30.13 1020 10 16.0934 0 0
1:35 pm 13:35 Cloudy 27 -3 20 -6.7 76 76 ENE 15 24 30.12 1020 10 16.0934 0 0
1:55 pm 13:55 Cloudy 27 -2.8 21 -6.3 77 77 ENE 14 22 30.12 1020 10 16.0934 0 0
2:15 pm 14:15 Cloudy 27 -2.8 20 -6.5 76 76 E 16 26 30.11 1019 10 16.0934 0 0
2:35 pm 14:35 Cloudy 26 -3.1 20 -6.6 77 77 ENE 15 24 30.11 1020 10 16.0934 0 0
2:55 pm 14:55 Cloudy 27 -2.7 20 -6.4 76 76 ENE 15 24 30.09 1019 10 16.0934 0 0
3:15 pm 15:15 Cloudy 28 -2.5 21 -6.1 77 77 E 20 31 30.1 1019 10 16.0934 0 0
3:35 pm 15:35 Cloudy 28 -2 21 -6.2 73 73 E 16 26 30.1 1019 10 16.0934 0 0
3:55 pm 15:55 Cloudy 29 -1.6 21 -6.2 71 71 E 15 24 30.09 1019 10 16.0934 0 0
4:15 pm 16:15 Cloudy 29 -1.7 21 -6.3 71 71 E 20 31 30.1 1019 10 16.0934 0 0
4:35 pm 16:35 Cloudy 28 -2.3 20 -6.5 73 73 E 15 24 30.12 1020 10 16.0934 0 0
4:55 pm 16:55 Cloudy 28 -2.5 20 -6.5 74 74 E 16 26 30.13 1020 10 16.0934 0 0
5:15 pm 17:15 Cloudy 28 -2.5 20 -6.5 74 74 E 15 24 30.12 1020 10 16.0934 0 0
5:35 pm 17:35 Cloudy 27 -2.7 20 -6.7 74 74 E 22 35 30.12 1020 7 11.26538 0 0
6:15 pm 18:15 Cloudy 26 -3.3 20 -6.9 76 76 E 14 22 30.17 1022 10 16.0934 0 0
6:35 pm 18:35 Cloudy 26 -3.6 19 -7 78 78 E 15 24 30.18 1022 10 16.0934 0 0
6:55 pm 18:55 Windy with Snow Likely 26 -3.6 20 -6.8 79 79 E 20 31 30.17 1022 7 11.26538 0 0
7:15 pm 19:15 Cloudy with Light Snow 25 -4 20 -6.5 83 83 E 17 28 30.19 1022 4 6.43736 0 0
7:35 pm 19:35 Cloudy with Light Snow 25 -4 21 -6 86 86 E 14 22 30.2 1023 4 6.43736 0 0
7:55 pm 19:55 Cloudy 25 -4 21 -6 86 86 E 16 26 30.2 1023 7 11.26538 0 0
8:15 pm 20:15 Cloudy with Light Snow 25 -4 21 -6 86 86 E 16 26 30.2 1023 5 8.0467 0 0
8:35 pm 20:35 Cloudy 25 -4 21 -6 86 86 E 14 22 30.21 1023 7 11.26538 0 0
8:55 pm 20:55 Cloudy 25 -4 21 -6 86 86 E 13 20 30.22 1023 7 11.26538 0 0
9:15 pm 21:15 Cloudy 25 -4.1 21 -6 87 87 E 12 19 30.23 1024 7 11.26538 0 0
9:35 pm 21:35 Cloudy 24 -4.2 21 -6 87 87 E 10 17 30.24 1024 7 11.26538 0 0
9:55 pm 21:55 Cloudy 24 -4.2 21 -6 87 87 ENE 10 17 30.25 1024 7 11.26538 0 0
10:15 pm 22:15 Cloudy 24 -4.2 21 -6 87 87 ENE 10 17 30.25 1024 7 11.26538 0 0
10:35 pm 22:35 Cloudy 24 -4.2 21 -6 87 87 ENE 14 22 30.25 1024 7 11.26538 0 0
10:55 pm 22:55 Cloudy with Light Snow 24 -4.5 21 -6.2 88 88 E 14 22 30.25 1024 2.5 4.02335 0 0
11:15 pm 23:15 Cloudy with Snow 24 -4.7 21 -6.2 89 89 E 12 19 30.26 1025 0.25 0.402335 0 0
11:35 pm 23:35 Cloudy with Light Snow 24 -4.7 21 -6.3 89 89 E 12 19 30.26 1025 4 6.43736 0 0
11:55 pm 23:55 Cloudy with Mist and Fog 24 -4.7 20 -6.5 87 87 E 12 19 30.26 1025 5 8.0467 0 0

Powered by AerisWeather